sat.trackr.live / text

‹ back to catalog

ONEWEB-0154

NORAD 48045 · 2021-025D

PAYLOAD ACTIVE UNKNOWN

§ Identity

Operator
Country
UK
Launch date
2021-03-25
Launch site
VOSTO
Launch vehicle
Mass (kg)
RCS (m²)

Purposes: comms

External: N2YO · Heavens-Above · Gunter

§ Orbital elements

Epoch: 2026-09-19T22:17:28.114368Z

Period
109.63 min
Inclination
87.8918°
Eccentricity
0.0001935
Mean motion
13.13470424 rev/d
Perigee alt
1,208.3 km
Apogee alt
1,211.2 km
Semi-major
7,587.9 km
B*
-1.0216e-4
RAAN
301.3749°
Arg perigee
96.2985°
Mean anomaly
263.8364°
Rev number
26,594

§ Raw data

ONEWEB-01541 48045U 21025D   26262.92879762 -.00000025  00000+0 -10216-3 0  99902 48045  87.8918 301.3749 0001935  96.2985 263.8364 13.13470424265945

JSON: /api/v1/satellites/48045 · /tle

For live sub-satellite position, see the globe view (requires WebGL).

§ Visibility from observer

Set your observer location to see the next 7 days of passes ≥ 10°. The values pass through the URL so the page stays shareable.

No JS? Fill the form by hand. The geolocation button needs JavaScript.